STARLINK-32278 (60356 NORAD) Tracking and Keplerian Element Data

This shows tracking and keplerian element data for the satellite.

Feedback or suggestion? Click here.




ElementValue
Catalog60356
NameSTARLINK-32278
Epoch Orbit1203
Epoch Day286.84519181
Epoch Year2024
RAAN177.0479
Inclination53.1601
Eccentricity0.000122
Argument of Perigee69.992
Mean Anonmoly290.1216
Mean Motion15.39637367
Decay Rate2.845E-05
L11 60356U 24138B 24286.84519181 .00002845 00000+0 81041-4 0 9993
L22 60356 53.1601 177.0479 0001220 69.9920 290.1216 15.39637367 12030



Live tracking and technical data element details for STARLINK-32278 (NORAD 60356). STARLINK-32278 can be tracked NOW for your location showing map with azimuth and elevation plus other details from your city location.







IsCatalogInMostPopularTable: catalog: 60356, numindb: 8
Update: records affected: 1



GetName: 60356 STARLINK-32278

Hit Count: updated at: Tue, 03 Dec 2024 02:21:07 GMT